This is the latest recevied weather packets stored in our database for station/object W1RCP. If no packets are shown the sender has not sent any weather packets the latest 10 day(s).
| Time | Temp. | Humidity | Pressure | Rain* | Wind** | Luminosity | Snow |
|---|---|---|---|---|---|---|---|
| 1778008051 | 28.33° C | 38% | 1026.4 hPa | 0 mm | - | 861 W/m² | - |
| 1778007752 | 27.78° C | 39% | 1026.2 hPa | 0 mm | - | 885 W/m² | - |
| 1778007448 | 28.33° C | 38% | 1026.5 hPa | 0 mm | - | 219 W/m² | - |
| 1778007145 | 28.89° C | 37% | 1026.5 hPa | 0 mm | - | 810 W/m² | - |
| 1778006841 | 28.33° C | 39% | 1026.4 hPa | 0 mm | - | 790 W/m² | - |
| 1778006539 | 27.78° C | 38% | 1026.7 hPa | 0 mm | - | 832 W/m² | - |
| 1778006235 | 27.78° C | 39% | 1026.6 hPa | 0 mm | - | 840 W/m² | - |
| 1778005933 | 27.78° C | 39% | 1026.5 hPa | 0 mm | - | 846 W/m² | - |
| 1778005628 | 28.33° C | 41% | 1026.7 hPa | 0 mm | - | 633 W/m² | - |
| 1778005326 | 27.78° C | 39% | 1026.7 hPa | 0 mm | - | 713 W/m² | - |
| 1778005022 | 28.33° C | 38% | 1026.7 hPa | 0 mm | - | 859 W/m² | - |
| 1778004720 | 28.33° C | 39% | 1026.5 hPa | 0 mm | - | 889 W/m² | - |
| 1778004416 | 27.78° C | 41% | 1026.6 hPa | 0 mm | - | 848 W/m² | - |
| 1778004113 | 27.78° C | 38% | 1026.6 hPa | 0 mm | - | 843 W/m² | - |
| 1778003809 | 27.78° C | 38% | 1026.7 hPa | 0 mm | - | 877 W/m² | - |
| 1778003505 | 27.78° C | 38% | 1026.7 hPa | 0 mm | - | 866 W/m² | - |
| 1778003202 | 27.22° C | 40% | 1026.9 hPa | 0 mm | - | 854 W/m² | - |
| 1778002898 | 27.22° C | 41% | 1027 hPa | 0 mm | - | 886 W/m² | - |
| 1778002595 | 26.67° C | 40% | 1026.8 hPa | 0 mm | - | 875 W/m² | - |
| 1778002292 | 27.22° C | 41% | 1026.9 hPa | 0 mm | - | 909 W/m² | - |
| 1778001990 | 27.22° C | 40% | 1026.9 hPa | 0 mm | - | 898 W/m² | - |
| 1778001686 | 26.67° C | 41% | 1027.2 hPa | 0 mm | - | 849 W/m² | - |
| 1778001381 | 27.22° C | 41% | 1027.3 hPa | 0 mm | - | 852 W/m² | - |
| 1778001078 | 27.22° C | 42% | 1027.2 hPa | 0 mm | - | 822 W/m² | - |
| 1778000775 | 26.67° C | 42% | 1027.4 hPa | 0 mm | - | 906 W/m² | - |
* Rain latest hour (hover to see other rain measurements)
** Current wind speed in m/s (hover to see current wind gust speed)